Snowfall_Accumulation
0.0 0.0 0.0 0.0 0.0 0.0 0.0 0.0 0.0 0.0 0.0 0.0 0.0 0.0 0.0 0.0 0.0 0.0 0.0 0.0 7.1 44.3 4.7 0.0 0.5 1.0 3.4 3.4 13.4 6.8 16.3 11.9 19.2 22.1 24.1 20.9 22.2 16.6 15.4 12.6 15.7 14.5 25.5 24.4 21.4 25.9 19.0 9.1 5.1 12.6 13.3 11.8 11.2 11.1
0.0 0.0 0.0 0.0 0.0 0.0 0.0 0.0 0.0 0.0 0.0 0.0 0.0 0.0 0.0 0.0 0.0 0.0 9.0 0.0 0.0 20.2 10.1 0.0 0.0 0.0 0.0 0.0 3.6 5.2 10.5 13.3 17.8 23.9 19.7 14.1 15.4 12.8 12.4 20.1 3.4 21.2 15.8 21.3 23.0 26.9 17.9 13.5 17.2 13.2 9.6 10.2 9.0 8.0
0.0 0.0 0.0 0.0 0.0 0.0 0.0 0.0 0.0 0.0 0.0 0.0 0.0 0.0 0.0 0.0 0.0 0.0 7.4 0.0 3.3 34.7 10.6 1.0 1.2 0.0 0.0 0.0 0.0 10.5 3.9 5.2 7.1 4.9 17.8 16.0 18.0 5.5 13.3 12.1 10.2 10.5 4.7 10.9 14.3 16.0 11.1 10.3 6.2 7.9 8.5 9.7 6.0 5.2
0.0 0.0 0.0 0.0 0.0 0.0 0.0 0.0 0.0 0.0 0.0 0.0 0.0 0.0 0.0 0.0 0.0 0.0 7.0 0.0 2.1 13.1 36.5 12.7 0.0 0.0 0.0 0.0 0.0 0.0 0.0 1.0 4.4 4.4 22.8 20.2 19.0 6.4 13.1 10.7 9.6 12.9 7.7 8.7 14.1 17.1 5.3 6.2 9.3 8.0 8.1 5.9 3.9 4.1
0.0 0.0 0.0 0.0 0.0 0.0 0.0 0.0 0.0 0.0 0.0 0.0 0.0 0.0 0.0 0.0 0.0 0.0 0.0 0.0 0.0 10.4 27.5 15.6 0.0 0.0 0.0 0.0 0.0 0.0 0.0 2.1 12.4 22.9 24.9 14.8 4.8 13.5 12.1 7.6 8.1 8.7 12.7 14.5 17.4 11.4 11.8 10.7 6.6 4.9 4.4 4.2 2.8 1.7
0.0 0.0 0.0 0.0 0.0 0.0 0.0 0.0 0.0 0.0 0.0 0.0 0.0 0.0 0.0 0.0 0.0 2.1 74.5 8.3 0.0 0.3 31.1 24.7 4.2 1.5 0.0 0.0 0.0 0.0 0.2 0.7 8.9 21.6 16.3 5.1 0.1 9.3 24.6 11.7 7.6 8.4 10.6 9.2 10.0 9.3 7.9 5.2 3.9 2.8 2.3 2.3 1.5 0.9
0.0 0.0 0.0 0.0 0.0 0.0 0.0 0.0 0.0 0.0 0.0 0.0 0.0 0.0 0.0 0.0 0.0 35.6 27.1 1.5 0.0 0.0 32.7 22.5 12.9 6.8 1.5 0.0 0.1 3.9 2.5 13.2 18.8 23.8 17.3 6.2 2.2 15.1 25.0 13.0 8.6 8.2 8.0 6.4 4.6 3.7 4.2 3.3 3.6 1.4 0.8 0.7 0.5 0.1
0.0 0.0 0.0 0.0 0.0 0.0 0.0 0.0 0.0 0.0 0.0 0.0 0.0 0.0 0.0 0.0 0.0 19.1 0.0 0.0 0.0 13.6 15.7 26.2 19.9 21.5 0.0 9.3 16.7 4.1 11.2 12.2 15.1 13.8 13.8 7.8 8.0 15.0 22.7 5.8 4.1 3.7 3.9 2.8 1.9 0.9 0.5 0.2 0.0 0.0 0.0 0.0 0.0 0.0
0.0 0.0 0.0 0.0 0.0 0.0 0.0 0.0 0.0 0.0 0.0 0.0 0.0 0.0 0.0 15.2 39.9 2.4 0.0 0.0 0.0 13.2 26.0 9.4 12.5 27.3 6.9 8.8 8.7 9.5 7.8 24.3 6.3 16.4 10.2 9.7 14.3 17.7 9.8 3.5 2.3 1.2 1.8 1.4 0.0 0.0 0.0 0.0 0.0 0.0 0.2 1.1 1.1 1.2
0.0 0.0 0.0 0.0 0.0 0.0 0.0 0.0 0.0 0.0 0.0 0.0 3.4 66.7 105.3 26.3 0.0 0.0 8.4 47.7 44.1 27.3 18.8 12.0 2.4 14.0 5.1 12.3 15.5 16.9 11.1 15.2 17.9 9.9 2.9 16.1 9.6 4.1 2.7 1.4 0.8 0.4 1.1 0.5 0.2 0.1 0.1 0.1 0.3 0.3 1.8 3.8 4.3 4.2
0.0 0.0 0.0 0.0 0.0 0.0 0.0 0.0 0.0 0.0 0.0 21.0 69.9 54.8 4.8 0.0 4.4 31.8 59.9 43.9 28.5 23.0 8.3 5.8 3.7 11.5 2.8 17.3 16.2 12.0 21.3 10.8 14.2 9.1 8.8 13.2 8.2 7.3 1.5 0.6 0.5 0.6 0.0 0.2 0.4 0.5 0.3 0.9 0.9 1.3 3.3 3.5 4.7 4.0
0.0 0.0 0.0 0.0 0.0 0.0 0.0 0.0 0.0 7.8 19.9 0.4 2.5 2.0 13.2 35.7 32.3 37.1 29.7 21.2 9.5 8.8 3.6 3.3 3.0 3.2 3.8 3.9 14.8 13.2 11.3 17.8 21.6 8.1 14.3 12.8 13.4 4.2 0.2 1.2 1.4 0.7 0.9 1.5 1.7 3.9 2.0 2.0 1.7 2.4 2.8 2.6 3.9 3.4
0.0 0.0 0.0 0.0 0.0 0.0 0.0 0.0 0.0 0.0 0.0 9.3 21.2 22.4 20.8 29.6 26.3 17.5 15.2 11.2 9.5 4.2 3.0 1.3 7.7 3.8 5.2 5.5 16.9 12.7 19.2 18.3 10.4 18.9 12.5 11.3 9.2 3.5 1.8 1.7 2.5 2.5 3.2 4.3 4.2 3.3 3.9 2.8 2.9 1.8 3.6 6.0 7.7 9.7
0.0 0.0 0.0 0.0 0.0 0.0 0.0 0.0 0.0 0.0 8.6 26.5 24.1 22.1 10.8 12.7 10.2 9.0 9.2 8.2 5.5 3.0 3.5 3.2 5.4 13.9 9.8 12.5 15.6 20.2 16.9 13.3 14.7 13.0 10.4 10.0 6.3 7.4 5.4 4.5 3.1 3.5 3.6 2.5 3.4 3.9 6.8 7.0 8.6 9.9 10.2 12.8 13.2 12.7
0.0 0.0 0.0 0.0 0.0 0.0 0.0 0.0 0.0 0.0 13.6 19.4 11.1 7.7 7.9 8.7 6.3 6.7 5.9 4.9 3.9 4.5 5.0 6.5 7.8 11.3 14.0 16.9 14.8 12.1 11.9 9.2 7.8 15.7 13.9 10.7 8.4 7.5 6.4 6.3 6.1 6.4 6.5 6.7 7.9 8.5 10.9 11.8 10.1 11.6 11.6 11.4 12.1 11.6
0.0 0.0 0.0 0.0 0.0 0.0 0.0 0.0 1.8 5.1 11.3 9.2 9.8 10.9 7.5 7.7 9.3 7.8 5.7 6.4 4.6 7.2 8.4 10.0 16.3 19.8 17.6 13.2 7.9 7.7 5.5 8.7 15.8 11.3 9.6 9.3 8.6 9.2 9.6 8.5 8.7 8.3 7.9 8.0 8.4 8.0 8.1 8.8 9.6 11.2 9.4 8.8 11.4 12.7
0.0 10.2 0.0 0.0 0.0 0.0 0.0 14.1 16.8 16.4 10.4 6.8 12.3 13.9 11.1 9.1 14.7 12.4 9.6 8.4 5.2 6.1 12.9 14.0 13.2 13.2 9.8 10.8 8.0 5.9 9.9 11.1 9.6 9.6 9.1 8.6 8.7 9.8 10.2 10.0 9.7 7.2 6.5 6.7 6.7 6.6 6.7 7.2 6.4 5.4 6.0 8.7 8.4 9.1
10.0 0.0 0.0 0.0 0.0 0.3 21.3 11.6 13.4 10.6 8.5 10.9 13.9 14.0 7.9 9.5 10.4 9.3 8.3 4.8 2.8 5.0 5.6 10.4 6.3 7.9 12.2 10.2 10.0 11.4 11.7 11.1 10.5 9.6 9.6 8.9 8.6 8.5 7.9 7.6 7.7 6.7 6.2 5.6 4.6 4.3 4.0 3.5 2.7 3.4 3.4 4.2 4.2 5.6
0.4 0.0 0.0 0.0 0.0 18.7 24.7 17.7 5.2 9.8 12.5 9.6 11.2 5.8 4.5 6.7 6.5 4.9 4.9 2.7 1.3 1.9 3.7 10.0 9.7 8.0 9.5 10.3 10.0 9.4 9.3 8.3 9.3 8.5 7.6 7.4 6.7 6.9 6.2 5.7 6.5 6.8 5.8 4.7 3.0 2.4 2.1 1.6 1.6 1.6 1.6 1.3 2.1 2.5
0.1 0.1 0.0 0.1 0.6 20.2 17.1 15.9 2.6 8.2 11.8 10.4 4.9 3.3 2.8 5.0 3.0 2.4 2.2 3.9 4.5 6.1 11.0 8.6 11.9 12.0 10.9 8.5 6.9 7.0 6.9 6.1 5.2 4.0 5.8 6.4 6.1 4.4 5.2 4.4 4.2 4.1 4.3 3.1 2.3 1.6 1.4 1.3 1.5 1.4 1.3 1.3 1.5 1.5
1.4 0.2 0.7 1.1 19.3 20.5 13.7 12.5 5.7 3.6 5.1 3.3 6.4 5.3 6.8 4.1 8.4 9.7 8.9 5.7 14.5 12.4 10.5 8.9 9.9 10.0 6.9 5.8 4.3 3.7 4.4 3.9 4.0 2.9 3.4 5.1 4.8 3.6 3.7 3.9 2.8 2.6 2.7 3.0 3.1 2.6 2.0 2.2 1.9 1.3 1.0 1.1 1.3 1.2
14.3 1.4 13.6 16.8 36.8 30.3 17.2 2.8 5.3 5.1 6.7 7.3 6.6 7.3 10.2 11.3 11.0 11.7 7.1 9.8 14.6 11.6 10.0 7.2 6.0 5.1 3.9 3.3 2.9 1.8 2.7 2.0 2.8 3.6 4.3 3.9 5.2 5.7 6.9 6.7 5.5 4.3 3.5 5.6 5.6 5.8 2.8 1.6 0.9 0.9 0.9 1.1 0.9 0.8
2.7 18.2 40.4 33.9 31.4 24.1 13.9 6.5 8.4 5.9 8.3 7.8 6.7 8.0 8.9 8.7 10.5 6.8 11.9 10.4 14.8 13.0 8.7 3.9 2.7 1.8 2.0 2.6 1.5 1.3 1.4 1.2 1.8 2.5 3.2 3.2 4.2 4.3 5.3 6.6 7.2 6.4 4.6 3.7 3.4 3.2 3.1 2.2 2.8 4.0 3.1 3.3 1.8 1.9
5.2 46.0 39.1 29.5 19.7 17.1 11.3 11.0 5.6 4.2 4.3 5.7 6.9 8.5 8.2 9.0 9.4 12.0 11.3 11.3 16.1 9.8 5.5 5.7 3.9 3.4 3.7 3.0 3.2 3.4 3.7 3.0 3.1 3.1 4.7 6.1 5.4 4.7 3.1 2.6 2.0 1.8 1.8 1.1 1.2 1.7 1.6 1.9 2.4 3.7 4.1 5.6 6.9 6.2
52.9 56.1 37.9 24.7 13.1 10.1 6.4 6.5 4.7 4.2 4.5 1.9 3.2 4.4 6.0 5.9 10.1 8.3 8.7 16.0 17.1 13.1 9.8 6.5 6.2 6.2 6.1 6.7 6.7 6.8 4.2 3.0 3.5 4.7 5.3 3.0 3.1 2.1 2.4 2.1 1.7 1.8 1.2 1.4 1.9 1.6 1.7 1.8 2.2 2.6 3.0 3.6 4.4 7.2
46.6 30.1 17.6 10.2 6.0 4.7 3.2 2.6 2.6 1.5 1.4 2.4 4.8 2.6 3.3 8.0 8.7 11.4 12.3 16.2 13.5 12.0 10.2 8.9 8.6 6.9 7.0 5.5 7.2 6.0 5.3 1.6 0.9 1.6 3.1 2.0 2.1 2.9 3.0 3.3 4.0 4.4 3.0 2.1 2.2 2.4 3.0 2.9 3.4 3.7 4.4 3.6 4.1 4.1
37.9 26.1 7.0 2.9 4.5 4.5 6.6 5.5 4.8 5.4 6.4 6.8 4.5 4.7 7.3 11.4 10.5 12.6 11.6 11.0 10.9 10.5 8.3 6.1 3.9 4.9 4.7 4.5 4.1 3.7 2.1 2.4 3.3 4.3 4.1 4.0 3.7 2.7 2.9 4.6 5.2 5.7 3.0 2.3 3.5 4.1 4.3 5.1 5.2 5.0 5.6 5.8 4.7 4.2
17.4 6.9 4.6 3.3 4.1 5.9 6.7 5.1 6.5 9.0 7.9 5.6 5.0 5.9 7.2 8.7 11.3 11.2 10.2 11.3 9.9 6.6 7.4 7.9 6.4 4.9 6.7 7.8 7.0 6.4 7.4 6.8 6.7 4.7 3.7 5.4 4.0 3.0 2.4 3.4 3.8 3.6 2.3 2.6 3.5 4.7 6.4 5.8 7.1 6.5 6.2 7.3 7.7 7.2
8.9 2.9 2.2 2.3 1.5 5.7 6.5 5.8 6.8 5.8 3.8 4.7 7.2 7.8 6.3 6.1 10.9 10.3 10.7 8.9 8.5 6.5 8.0 8.5 12.1 8.3 7.5 10.1 11.3 10.5 10.2 10.0 8.0 6.8 5.0 6.1 5.1 4.6 2.4 2.0 3.4 3.2 2.7 3.0 3.7 4.1 4.8 5.3 7.2 7.3 6.7 8.2 7.1 7.2
2.4 0.6 2.0 0.7 0.7 4.8 7.3 4.7 5.0 4.5 2.8 4.2 4.0 3.4 4.7 10.3 15.8 10.0 7.6 6.4 7.0 8.1 8.6 7.7 8.4 6.8 8.3 8.2 11.5 11.5 11.1 12.6 12.8 11.0 8.8 5.8 4.6 3.0 2.5 2.3 2.2 2.6 1.7 2.8 3.9 4.6 4.8 6.7 7.3 7.9 8.6 9.1 10.4 10.2
2.0 2.4 2.6 1.8 2.7 5.2 3.6 1.8 2.7 3.5 4.7 6.6 5.3 3.4 4.4 8.9 9.5 7.1 6.5 7.6 5.9 4.6 4.1 5.3 6.4 6.3 7.7 8.8 9.5 9.4 11.4 12.7 14.2 13.2 12.9 10.4 7.4 5.6 4.0 3.4 3.0 3.2 4.5 4.8 4.4 3.9 6.2 7.5 7.4 7.6 7.8 7.1 8.6 8.3
4.3 4.5 3.3 3.8 6.0 4.0 2.0 2.9 4.3 6.4 7.3 7.8 9.2 7.9 7.6 4.9 4.2 5.9 6.6 6.3 4.8 4.5 4.5 4.8 6.2 8.6 7.5 8.8 9.4 9.9 9.6 10.7 11.5 12.1 14.2 12.5 10.2 8.1 6.1 4.9 4.5 5.0 6.6 5.9 5.1 5.3 5.3 6.2 7.5 7.7 7.9 7.6 6.0 7.3
5.7 4.0 3.8 4.5 4.9 3.1 1.9 2.8 5.0 5.7 6.3 6.9 8.8 7.6 6.0 3.6 5.2 7.1 5.5 4.7 6.3 6.0 5.5 5.3 4.9 6.3 6.5 5.8 5.8 6.1 6.2 6.9 7.6 7.9 9.8 10.1 10.0 9.3 8.5 7.1 6.3 6.2 6.3 6.4 5.5 5.1 5.5 5.1 6.2 5.2 7.4 6.7 6.5 6.9